User: anonymous   Login
Location: ??
(35.4032°N, 139.3073°E)
Time: 14:10:35
(UTC+00:00)
Language:

YAOGAN 6 - Orbit

View from above orbital plane
View from above orbital plane
View from above satellite
View from above satellite

Ground track
Ground track

The orbit data is extracted from the following two-line orbital elements,

1 34839U 09021A   24175.89736656  .00018046  00000-0  33952-3 0  9992
2 34839  97.1709 143.3405 0018703 147.5597 212.6808 15.48409102844477
Epoch (UTC): 23 June 2024 21:32:12
Eccentricity: 0.0018703
inclination: 97.1709°
perigee height: 408 km
apogee height: 434 km
right ascension of ascending node: 143.3405°
argument of perigee: 147.5597°
revolutions per day: 15.48409102
mean anomaly at epoch: 212.6808°
orbit number at epoch: 84447

The dashed part of the orbit path shows where the satellite is in the earth's shadow,  

DLR